Time,TemperatureF,DewpointF,PressureIn,WindDirection,WindDirectionDegrees,WindSpeedMPH,WindSpeedGustMPH,Humidity,HourlyPrecipIn,Conditions,Clouds,dailyrainin,SolarRadiationWatts/m^2,SoftwareType,DateUTC
2013-04-25 00:01:00,40.0,16.0,-100.00,East,83,5.0,9.0,38,0.00,,,0.00,0.000000,,2013-04-25 06:01:00,
2013-04-25 00:11:00,40.0,16.0,-100.00,East,83,5.0,9.0,38,0.00,,,0.00,0.000000,,2013-04-25 06:11:00,
2013-04-25 00:22:00,40.0,16.0,-100.00,East,83,5.0,9.0,38,0.00,,,0.00,0.000000,,2013-04-25 06:22:00,
2013-04-25 01:01:00,38.0,17.0,-100.00,East,88,7.0,12.0,42,0.00,,,0.00,0.000000,,2013-04-25 07:01:00,
2013-04-25 01:11:00,38.0,17.0,-100.00,East,88,7.0,12.0,42,0.00,,,0.00,0.000000,,2013-04-25 07:11:00,
2013-04-25 01:21:00,38.0,17.0,-100.00,East,88,7.0,12.0,42,0.00,,,0.00,0.000000,,2013-04-25 07:21:00,
2013-04-25 01:31:00,38.0,17.0,-100.00,East,88,7.0,12.0,42,0.00,,,0.00,0.000000,,2013-04-25 07:31:00,
2013-04-25 02:01:00,37.0,19.0,-100.00,East,90,7.0,10.0,47,-99.99,,,0.00,0.000000,,2013-04-25 08:01:00,
2013-04-25 02:11:00,37.0,19.0,-100.00,East,90,7.0,10.0,47,-99.99,,,0.00,0.000000,,2013-04-25 08:11:00,
2013-04-25 02:21:00,37.0,19.0,-100.00,East,90,7.0,10.0,47,-99.99,,,0.00,0.000000,,2013-04-25 08:21:00,
2013-04-25 03:01:00,36.0,19.0,-100.00,East,90,5.0,10.0,49,-99.99,,,0.00,0.000000,,2013-04-25 09:01:00,
2013-04-25 03:11:00,36.0,19.0,-100.00,East,90,5.0,10.0,49,-99.99,,,0.00,0.000000,,2013-04-25 09:11:00,
2013-04-25 03:21:00,36.0,19.0,-100.00,East,90,5.0,10.0,49,-99.99,,,0.00,0.000000,,2013-04-25 09:21:00,
2013-04-25 04:02:00,35.0,18.0,-100.00,East,88,5.0,8.0,50,-99.99,,,0.00,0.000000,,2013-04-25 10:02:00,
2013-04-25 04:12:00,35.0,18.0,-100.00,East,88,5.0,8.0,50,-99.99,,,0.00,0.000000,,2013-04-25 10:12:00,
2013-04-25 04:22:00,35.0,18.0,-100.00,East,88,5.0,8.0,50,-99.99,,,0.00,0.000000,,2013-04-25 10:22:00,
2013-04-25 04:32:00,35.0,18.0,-100.00,East,88,5.0,8.0,50,-99.99,,,0.00,0.000000,,2013-04-25 10:32:00,
2013-04-25 05:02:00,34.0,19.0,-100.00,NE,41,1.0,5.0,53,0.00,,,0.00,0.000000,,2013-04-25 11:02:00,
2013-04-25 05:12:00,34.0,19.0,-100.00,NE,41,1.0,5.0,53,0.00,,,0.00,0.000000,,2013-04-25 11:12:00,
2013-04-25 05:22:00,34.0,19.0,-100.00,NE,41,1.0,5.0,53,0.00,,,0.00,0.000000,,2013-04-25 11:22:00,
2013-04-25 05:32:00,34.0,19.0,-100.00,NE,41,1.0,5.0,53,0.00,,,0.00,0.000000,,2013-04-25 11:32:00,
2013-04-25 06:01:00,33.0,19.0,-100.00,East,95,3.0,5.0,55,0.00,,,0.00,0.000000,,2013-04-25 12:01:00,
2013-04-25 06:12:00,33.0,19.0,-100.00,East,95,3.0,5.0,55,0.00,,,0.00,0.000000,,2013-04-25 12:12:00,
2013-04-25 06:21:00,33.0,19.0,-100.00,East,95,3.0,5.0,55,0.00,,,0.00,0.000000,,2013-04-25 12:21:00,
2013-04-25 06:31:00,33.0,19.0,-100.00,East,95,3.0,5.0,55,0.00,,,0.00,0.000000,,2013-04-25 12:31:00,
2013-04-25 07:02:00,32.0,19.0,-100.00,NE,55,0.0,6.0,57,0.00,,,0.00,0.000000,,2013-04-25 13:02:00,
2013-04-25 07:11:00,32.0,19.0,-100.00,NE,55,0.0,6.0,57,0.00,,,0.00,0.000000,,2013-04-25 13:11:00,
2013-04-25 07:21:00,32.0,19.0,-100.00,NE,55,0.0,6.0,57,0.00,,,0.00,0.000000,,2013-04-25 13:21:00,
2013-04-25 07:31:00,32.0,19.0,-100.00,NE,55,0.0,6.0,57,0.00,,,0.00,0.000000,,2013-04-25 13:31:00,
2013-04-25 08:01:00,32.0,19.0,-100.00,ESE,103,2.0,5.0,58,0.00,,,-99.99,23.000000,,2013-04-25 14:01:00,
2013-04-25 08:11:00,32.0,19.0,-100.00,ESE,103,2.0,5.0,58,0.00,,,-99.99,23.000000,,2013-04-25 14:11:00,
2013-04-25 08:21:00,32.0,19.0,-100.00,ESE,103,2.0,5.0,58,0.00,,,-99.99,23.000000,,2013-04-25 14:21:00,
2013-04-25 08:32:00,32.0,19.0,-100.00,ESE,103,2.0,5.0,58,0.00,,,-99.99,23.000000,,2013-04-25 14:32:00,
2013-04-25 09:02:00,35.0,21.0,-100.00,North,2,0.0,3.0,57,0.00,,,0.00,116.000000,,2013-04-25 15:02:00,
2013-04-25 09:11:00,35.0,21.0,-100.00,North,2,0.0,3.0,57,0.00,,,0.00,116.000000,,2013-04-25 15:11:00,
2013-04-25 09:21:00,35.0,21.0,-100.00,North,2,0.0,3.0,57,0.00,,,0.00,116.000000,,2013-04-25 15:21:00,
2013-04-25 09:33:00,35.0,21.0,-100.00,North,2,0.0,3.0,57,0.00,,,0.00,116.000000,,2013-04-25 15:33:00,
2013-04-25 10:02:00,42.0,23.0,-100.00,SSE,159,2.0,6.0,47,0.00,,,0.00,350.000000,,2013-04-25 16:02:00,
2013-04-25 10:13:00,42.0,23.0,-100.00,SSE,159,2.0,6.0,47,0.00,,,0.00,350.000000,,2013-04-25 16:13:00,
2013-04-25 10:24:00,42.0,23.0,-100.00,SSE,159,2.0,6.0,47,0.00,,,0.00,350.000000,,2013-04-25 16:24:00,
2013-04-25 10:32:00,42.0,23.0,-100.00,SSE,159,2.0,6.0,47,0.00,,,0.00,350.000000,,2013-04-25 16:32:00,
2013-04-25 11:02:00,49.0,24.0,-100.00,SE,137,2.0,8.0,37,0.00,,,0.00,568.000000,,2013-04-25 17:02:00,
2013-04-25 11:11:00,49.0,24.0,-100.00,SE,137,2.0,8.0,37,0.00,,,0.00,568.000000,,2013-04-25 17:11:00,
2013-04-25 11:22:00,49.0,24.0,-100.00,SE,137,2.0,8.0,37,0.00,,,0.00,568.000000,,2013-04-25 17:22:00,
2013-04-25 11:31:00,49.0,24.0,-100.00,SE,137,2.0,8.0,37,0.00,,,0.00,568.000000,,2013-04-25 17:31:00,
2013-04-25 12:01:00,55.0,16.0,-100.00,ESE,121,5.0,9.0,21,0.00,,,0.00,718.000000,,2013-04-25 18:01:00,
2013-04-25 12:11:00,55.0,16.0,-100.00,ESE,121,5.0,9.0,21,0.00,,,0.00,718.000000,,2013-04-25 18:11:00,
2013-04-25 12:21:00,55.0,16.0,-100.00,ESE,121,5.0,9.0,21,0.00,,,0.00,718.000000,,2013-04-25 18:21:00,
2013-04-25 12:31:00,55.0,16.0,-100.00,ESE,121,5.0,9.0,21,0.00,,,0.00,718.000000,,2013-04-25 18:31:00,
2013-04-25 13:01:00,56.0,13.0,-100.00,WNW,283,9.0,19.0,18,0.00,,,0.00,838.000000,,2013-04-25 19:01:00,
2013-04-25 13:12:00,56.0,13.0,-100.00,WNW,283,9.0,19.0,18,0.00,,,0.00,838.000000,,2013-04-25 19:12:00,
2013-04-25 13:21:00,56.0,13.0,-100.00,WNW,283,9.0,19.0,18,0.00,,,0.00,838.000000,,2013-04-25 19:21:00,
2013-04-25 13:31:00,56.0,13.0,-100.00,WNW,283,9.0,19.0,18,0.00,,,0.00,838.000000,,2013-04-25 19:31:00,
2013-04-25 14:01:00,57.0,16.0,-100.00,West,268,11.0,20.0,20,0.00,,,-99.99,903.000000,,2013-04-25 20:01:00,
2013-04-25 14:11:00,57.0,16.0,-100.00,West,268,11.0,20.0,20,0.00,,,-99.99,903.000000,,2013-04-25 20:11:00,
2013-04-25 14:22:00,57.0,16.0,-100.00,West,268,11.0,20.0,20,0.00,,,-99.99,903.000000,,2013-04-25 20:22:00,
2013-04-25 14:32:00,57.0,16.0,-100.00,West,268,11.0,20.0,20,0.00,,,-99.99,903.000000,,2013-04-25 20:32:00,
2013-04-25 15:01:00,59.0,18.0,-100.00,West,261,9.0,16.0,20,0.00,,,0.00,912.000000,,2013-04-25 21:01:00,
2013-04-25 15:11:00,59.0,18.0,-100.00,West,261,9.0,16.0,20,0.00,,,0.00,912.000000,,2013-04-25 21:11:00,
2013-04-25 15:21:00,59.0,18.0,-100.00,West,261,9.0,16.0,20,0.00,,,0.00,912.000000,,2013-04-25 21:21:00,
2013-04-25 15:33:00,59.0,18.0,-100.00,West,261,9.0,16.0,20,0.00,,,0.00,912.000000,,2013-04-25 21:33:00,
2013-04-25 16:02:00,60.0,18.0,-100.00,WNW,291,8.0,20.0,19,0.00,,,0.00,868.000000,,2013-04-25 22:02:00,
2013-04-25 16:12:00,60.0,18.0,-100.00,WNW,291,8.0,20.0,19,0.00,,,0.00,868.000000,,2013-04-25 22:12:00,
2013-04-25 16:22:00,60.0,18.0,-100.00,WNW,291,8.0,20.0,19,0.00,,,0.00,868.000000,,2013-04-25 22:22:00,
2013-04-25 16:32:00,60.0,18.0,-100.00,WNW,291,8.0,20.0,19,0.00,,,0.00,868.000000,,2013-04-25 22:32:00,
2013-04-25 17:02:00,61.0,16.0,-100.00,NW,314,8.0,16.0,17,0.00,,,-99.99,769.000000,,2013-04-25 23:02:00,
2013-04-25 17:12:00,61.0,16.0,-100.00,NW,314,8.0,16.0,17,0.00,,,-99.99,769.000000,,2013-04-25 23:12:00,
2013-04-25 17:21:00,61.0,16.0,-100.00,NW,314,8.0,16.0,17,0.00,,,-99.99,769.000000,,2013-04-25 23:21:00,
2013-04-25 17:32:00,61.0,16.0,-100.00,NW,314,8.0,16.0,17,0.00,,,-99.99,769.000000,,2013-04-25 23:32:00,
2013-04-25 18:01:00,61.0,17.0,-100.00,WNW,282,10.0,20.0,18,0.00,,,0.00,625.000000,,2013-04-26 00:01:00,
2013-04-25 18:11:00,61.0,17.0,-100.00,WNW,282,10.0,20.0,18,0.00,,,0.00,625.000000,,2013-04-26 00:11:00,
2013-04-25 18:21:00,61.0,17.0,-100.00,WNW,282,10.0,20.0,18,0.00,,,0.00,625.000000,,2013-04-26 00:21:00,
2013-04-25 18:31:00,61.0,17.0,-100.00,WNW,282,10.0,20.0,18,0.00,,,0.00,625.000000,,2013-04-26 00:31:00,
2013-04-25 19:01:00,62.0,20.0,-100.00,NW,309,5.0,16.0,20,0.00,,,0.00,436.000000,,2013-04-26 01:01:00,
2013-04-25 19:11:00,62.0,20.0,-100.00,NW,309,5.0,16.0,20,0.00,,,0.00,436.000000,,2013-04-26 01:11:00,
2013-04-25 19:21:00,62.0,20.0,-100.00,NW,309,5.0,16.0,20,0.00,,,0.00,436.000000,,2013-04-26 01:21:00,
2013-04-25 19:31:00,62.0,20.0,-100.00,NW,309,5.0,16.0,20,0.00,,,0.00,436.000000,,2013-04-26 01:31:00,
2013-04-25 20:01:00,59.0,18.0,-100.00,NNW,339,6.0,13.0,20,0.00,,,0.00,251.000000,,2013-04-26 02:01:00,
2013-04-25 20:11:00,59.0,18.0,-100.00,NNW,339,6.0,13.0,20,0.00,,,0.00,251.000000,,2013-04-26 02:11:00,
2013-04-25 20:21:00,59.0,18.0,-100.00,NNW,339,6.0,13.0,20,0.00,,,0.00,251.000000,,2013-04-26 02:21:00,
2013-04-25 20:31:00,59.0,18.0,-100.00,NNW,339,6.0,13.0,20,0.00,,,0.00,251.000000,,2013-04-26 02:31:00,
2013-04-25 21:01:00,54.0,20.0,-100.00,NW,310,6.0,13.0,26,0.00,,,0.00,49.000000,,2013-04-26 03:01:00,
2013-04-25 21:11:00,54.0,20.0,-100.00,NW,310,6.0,13.0,26,0.00,,,0.00,49.000000,,2013-04-26 03:11:00,
2013-04-25 21:21:00,54.0,20.0,-100.00,NW,310,6.0,13.0,26,0.00,,,0.00,49.000000,,2013-04-26 03:21:00,
2013-04-25 21:32:00,54.0,20.0,-100.00,NW,310,6.0,13.0,26,0.00,,,0.00,49.000000,,2013-04-26 03:32:00,
2013-04-25 22:02:00,52.0,20.0,-100.00,NNW,342,2.0,10.0,28,0.00,,,0.00,1.000000,,2013-04-26 04:02:00,
2013-04-25 22:12:00,52.0,20.0,-100.00,NNW,342,2.0,10.0,28,0.00,,,0.00,1.000000,,2013-04-26 04:12:00,
2013-04-25 22:22:00,52.0,20.0,-100.00,NNW,342,2.0,10.0,28,0.00,,,0.00,1.000000,,2013-04-26 04:22:00,
2013-04-25 22:32:00,52.0,20.0,-100.00,NNW,342,2.0,10.0,28,0.00,,,0.00,1.000000,,2013-04-26 04:32:00,
2013-04-25 23:02:00,47.0,22.0,-100.00,NNW,335,4.0,7.0,37,0.00,,,0.00,0.000000,,2013-04-26 05:02:00,
2013-04-25 23:12:00,47.0,22.0,-100.00,NNW,335,4.0,7.0,37,0.00,,,0.00,0.000000,,2013-04-26 05:12:00,
2013-04-25 23:22:00,47.0,22.0,-100.00,NNW,335,4.0,7.0,37,0.00,,,0.00,0.000000,,2013-04-26 05:22:00,
2013-04-25 23:32:00,47.0,22.0,-100.00,NNW,335,4.0,7.0,37,0.00,,,0.00,0.000000,,2013-04-26 05:32:00,